Regional Weather Roundup
Issued by NWS

Home | Current Version | Previous Version | Graphics & Text | Print | Product List | Glossary On
Versions: 1 2 3 4 5 6 7 8 9 10 11 12 13 14 15 16 17 18 19 20 21 22 23 24 25 26 27 28 29 30 31 32 33 34 35 36 37 38 39 40 41 42 43 44 45 46 47 48 49 50
000
ASUS43 KFSD 241910
RWRSD

WEATHER ROUNDUP FOR SOUTH DAKOTA
NATIONAL WEATHER SERVICE SIOUX FALLS SD
200 PM CDT SUN MAY 24 2015

NOTE: "FAIR" INDICATES FEW OR NO CLOUDS BELOW 12,000 FEET WITH NO
SIGNIFICANT WEATHER AND/OR OBSTRUCTIONS TO VISIBILITY.


SDZ001>005-009-010-012>017-242000-
NORTHWEST AND NORTH CENTRAL SOUTH DAKOTA

CITY           SKY/WX    TMP DP  RH WIND       PRES   REMARKS
BUFFALO          N/A     56  52  86 E16       29.91F
FAITH            N/A     61  50  67 E13       29.92F
MOBRIDGE       CLOUDY    70  51  51 NE17      29.90F
$$

SDZ012>016-024>037-041>051-057-063-072>074-242000-
SOUTHWEST AND SOUTH CENTRAL SOUTH DAKOTA

CITY           SKY/WX    TMP DP  RH WIND       PRES   REMARKS
RAPID CTY ARPT LGT RAIN  55  53  93 NE12      29.91F FOG
PIERRE         CLOUDY    64  55  72 E17       29.87F
CUSTER         CLOUDY    49  45  86 E9        29.93F
ELLSWORTH AFB  RAIN      53  53 100 E12       29.91  FOG
PHILIP         LGT RAIN  58  57  97 E12       29.88F FOG
PINE RIDGE     LGT RAIN  60  51  72 CALM      29.86F
SPEARFISH      LGT RAIN  50  50 100 E14       29.94F
WINNER         CLOUDY    60  57  89 NE10      29.87F
$$

SDZ004>011-016>023-039-040-242000-
NORTHEAST SOUTH DAKOTA

CITY           SKY/WX    TMP DP  RH WIND       PRES   REMARKS
ABERDEEN       CLOUDY    66  54  65 E10       29.92F
WATERTOWN      LGT RAIN  59  56  89 E10       29.91F FOG
BROOKINGS      CLOUDY    61  57  88 E14       29.90F
SISSETON         N/A     62  56  80 E10       29.94F
$$

SDZ017-020-022-023-036>040-048>070-242000-
SOUTHEAST SOUTH DAKOTA

CITY           SKY/WX    TMP DP  RH WIND       PRES   REMARKS
SIOUX FALLS    LGT RAIN  61  60  97 E10       29.85F FOG
HURON          CLOUDY    62  58  86 E16       29.87F
CHAMBERLAIN    CLOUDY    61  57  89 E7        29.87F
MITCHELL       LGT RAIN  63  60  90 E13       29.85F
YANKTON        CLOUDY    63  57  82 E9        29.82F
$$

ABBREVIATIONS USED IN REMARKS
   TC - TEMPERATURE IN CELSIUS
  WCI - WIND CHILL INDEX
   HX - HEAT INDEX
  VSB - VISIBILITY



USA.gov is the U.S. government's official web portal to all federal, state and local government web resources and services.